Theta_e
321 321 320 319 320 320 322 323 323 324 324 324 323 322 324 325 324 324 323 323 324 324 324 325 326 327 328 328 328 328 328 328 328 328 327 326 325 325 326 327 327 326
322 321 320 321 322 321 322 323 323 324 324 323 323 322 324 324 324 324 323 322 323 323 324 326 327 328 328 328 327 327 328 328 327 324 322 320 320 320 322 322 321 320
322 321 321 322 322 322 322 322 322 323 323 323 323 323 324 324 324 324 323 322 323 322 323 325 326 327 327 327 327 327 327 325 321 317 315 314 314 315 316 315 315 315
322 321 321 322 321 321 321 321 322 323 323 323 323 323 323 323 323 324 323 321 321 321 323 324 324 324 325 325 325 324 323 319 315 314 313 313 313 313 313 314 314 315
321 321 320 320 320 321 321 322 323 323 323 323 322 322 320 320 322 323 323 321 319 319 321 322 322 322 323 323 323 322 320 317 314 314 314 313 313 313 313 314 314 315
321 320 320 320 320 321 322 323 323 322 322 322 320 319 318 319 321 322 322 321 319 317 318 319 319 319 319 319 320 320 319 316 315 314 314 314 314 314 313 313 314 315
322 321 320 320 321 321 322 322 322 321 321 320 319 318 318 318 319 320 320 320 317 316 317 317 317 317 316 316 317 316 316 315 315 316 316 316 315 314 313 313 313 314
322 321 320 321 321 322 322 321 321 320 320 319 319 318 317 316 316 316 317 317 315 315 315 315 316 316 316 315 315 314 314 315 317 317 316 316 315 314 315 315 314 315
322 321 321 321 321 321 321 320 320 319 318 318 317 316 314 314 313 313 314 314 314 314 314 314 314 314 314 314 313 313 313 315 317 316 316 315 314 315 316 316 316 315
322 322 322 321 321 321 321 320 319 319 317 316 315 314 314 313 313 313 312 312 313 313 313 312 312 312 312 313 312 312 312 314 316 316 316 315 315 316 316 315 316 315
322 322 322 321 321 321 320 319 319 317 315 314 314 314 314 313 313 313 312 312 313 313 312 312 311 312 312 312 312 313 313 315 316 317 317 316 316 316 316 315 316 315
322 321 321 320 319 318 317 317 317 316 314 312 313 315 315 314 313 313 312 312 312 313 312 313 313 313 312 313 313 313 314 315 315 316 316 315 315 315 315 315 315 315
321 320 319 317 317 317 315 314 314 314 314 313 313 314 315 315 314 313 313 312 313 313 313 313 314 313 313 314 314 314 314 315 315 315 315 315 314 314 314 313 313 313
320 319 319 318 318 319 319 317 313 311 311 312 313 314 316 316 314 314 315 313 312 313 314 314 314 314 313 313 314 314 314 314 314 314 314 314 314 314 313 312 312 311
320 321 322 322 321 321 321 321 316 312 312 314 316 318 319 318 315 314 315 315 313 313 314 314 315 315 313 313 314 315 314 314 314 313 313 314 314 313 313 313 313 313
322 323 324 323 323 322 322 321 319 318 318 319 319 320 321 319 316 314 314 315 315 315 314 315 315 315 315 314 314 315 315 315 313 313 314 315 314 313 313 314 315 315
323 323 323 322 322 322 322 322 321 321 322 322 322 321 321 320 317 315 315 315 315 315 315 315 315 315 316 315 315 315 316 316 315 314 315 317 316 315 314 315 315 316
321 321 321 321 321 321 322 323 322 322 322 322 323 322 322 321 319 318 317 317 315 315 315 315 316 316 315 315 314 314 315 316 316 316 315 316 317 317 317 316 316 317
312 314 316 318 319 320 321 322 322 322 322 322 322 323 323 323 322 322 321 320 319 318 318 318 318 317 317 315 314 314 314 315 315 315 316 316 316 317 318 318 318 318
306 308 309 310 312 315 316 317 317 318 320 322 322 323 323 323 323 322 322 321 321 320 321 321 320 320 319 318 316 315 314 315 315 315 316 317 317 317 318 319 319 319
304 304 305 306 307 308 309 309 310 311 313 315 316 319 321 321 322 322 322 322 322 321 321 321 321 321 321 320 319 317 316 315 315 315 316 317 318 318 319 320 320 320
303 303 303 304 304 305 305 305 305 306 306 307 308 310 312 314 315 316 317 318 320 321 321 322 321 321 321 321 321 320 319 317 315 315 316 318 320 320 320 320 320 320
302 302 302 302 302 303 303 303 303 303 303 304 304 305 305 305 307 308 309 312 314 317 319 321 321 321 321 321 321 321 321 319 318 317 318 320 321 321 321 321 321 321
300 301 301 301 301 301 301 301 302 302 302 302 302 302 303 302 303 305 306 307 308 310 313 316 318 320 320 321 321 321 321 321 320 319 319 319 321 321 321 321 321 321
300 300 300 300 300 300 300 300 301 301 301 301 301 301 302 302 302 303 304 305 305 306 307 309 312 315 318 320 320 320 320 320 320 320 319 319 319 320 320 321 321 320
300 300 300 300 300 300 300 300 300 300 300 300 301 301 301 301 302 302 302 303 303 304 304 304 305 308 312 316 318 319 319 319 320 320 319 319 319 319 319 319 319 319
Wind_Speed
18 17 16 17 17 17 17 16 14 14 14 13 11 10 10 10 11 12 11 10 10 10 9 9 10 10 10 11 12 13 13 12 12 12 12 12 10 10 11 12 13 12
18 16 15 16 16 15 15 15 14 14 15 14 13 12 12 11 10 10 9 8 9 9 8 9 11 12 11 11 12 13 13 13 13 12 12 12 11 11 13 14 13 12
16 15 15 15 16 16 15 14 14 15 17 16 14 13 13 12 11 10 10 9 9 9 9 11 13 13 13 13 14 15 15 15 15 14 14 14 14 15 17 17 17 15
17 17 16 16 17 17 15 14 15 18 19 17 16 14 13 11 11 11 11 11 10 10 11 14 15 15 15 16 16 16 17 16 16 16 16 16 16 17 18 18 17 16
18 18 18 17 17 17 16 16 19 20 19 18 16 13 12 12 12 12 12 12 12 13 14 15 15 15 15 15 15 15 15 16 16 16 16 16 16 16 16 16 17 16
19 19 19 18 17 17 17 19 21 21 19 17 14 13 13 14 13 13 13 12 12 13 14 14 14 13 13 14 14 14 14 15 15 15 16 16 16 14 13 14 16 16
19 20 19 18 17 17 19 20 20 19 17 15 14 15 15 14 13 13 13 12 12 12 13 13 12 12 13 14 15 14 14 15 15 15 16 16 15 13 13 14 15 15
20 20 19 18 18 18 18 19 18 17 17 15 15 15 14 13 12 12 12 13 13 13 12 12 12 12 12 14 15 15 15 15 15 16 16 15 15 14 14 15 16 16
21 21 19 17 17 17 17 17 17 16 15 15 16 16 14 14 13 12 12 13 13 13 12 11 11 11 12 14 14 14 15 16 16 16 16 16 17 16 14 14 15 16
21 20 19 17 16 16 16 15 15 15 14 15 17 17 15 14 13 12 12 13 14 13 12 11 11 12 13 13 13 13 15 17 17 17 16 17 18 17 15 14 15 15
22 19 17 16 16 15 15 14 14 14 14 16 18 16 14 15 14 13 13 13 13 13 13 12 11 11 12 12 13 13 15 17 17 16 16 16 17 17 16 16 15 15
19 18 15 15 15 14 12 12 13 14 15 16 17 16 13 14 14 14 13 14 13 13 14 12 10 11 12 12 12 14 16 16 16 16 17 17 17 17 17 16 15 15
14 13 14 15 13 12 10 9 12 14 14 14 15 15 12 11 13 13 12 14 15 15 15 13 11 12 13 13 11 14 18 19 17 18 18 18 17 17 16 16 15 16
14 11 13 14 12 11 9 8 9 11 12 12 13 13 9 9 13 12 10 14 16 16 16 15 13 12 14 15 13 14 19 21 20 19 18 18 18 17 16 15 16 16
17 14 13 12 12 12 11 9 9 9 10 10 10 7 4 8 14 12 10 13 15 15 17 16 14 14 15 17 16 16 18 20 20 20 18 17 19 19 18 16 16 17
20 18 14 11 10 12 13 13 11 10 9 8 7 6 4 7 13 14 12 13 13 14 17 17 16 15 15 17 18 18 18 19 21 21 19 17 19 21 21 19 18 18
14 12 11 10 8 9 11 12 12 11 9 6 5 5 3 5 11 14 13 13 14 15 17 18 18 17 17 17 19 20 20 21 22 22 21 20 20 22 22 22 22 21
10 9 9 9 8 7 8 8 8 9 7 5 5 5 4 4 7 8 8 10 13 15 16 17 18 19 19 20 20 21 22 23 23 23 23 23 23 22 22 22 23 22
19 18 16 12 8 6 6 6 4 3 2 2 2 2 2 1 2 3 4 5 8 10 12 13 14 16 18 21 23 23 23 24 25 25 26 25 26 25 24 24 24 24
24 24 22 20 17 14 12 12 11 9 6 3 2 2 2 3 3 3 5 6 7 8 9 10 11 12 13 16 20 24 26 27 26 27 28 28 28 28 27 27 27 27
23 23 22 20 19 18 17 16 15 14 12 10 7 4 4 4 4 4 5 8 10 11 12 12 12 12 12 12 14 19 25 28 30 30 31 31 31 31 30 30 29 29
21 21 21 19 18 17 17 17 16 15 14 12 10 8 7 5 4 4 6 7 9 10 12 13 13 14 15 15 15 16 19 23 28 31 31 31 31 32 32 32 31 31
19 19 20 20 18 18 18 17 16 15 14 13 12 10 9 9 8 7 7 8 8 9 10 12 13 14 15 17 17 18 19 20 24 27 29 29 29 31 31 32 32 31
18 17 18 19 19 19 19 18 17 16 15 14 13 13 12 12 12 11 10 10 10 9 10 12 13 14 15 16 17 18 20 22 23 25 26 28 28 29 30 31 31 31
19 18 18 18 19 19 19 19 18 17 16 15 15 14 14 14 14 14 13 13 13 13 13 13 14 14 15 17 17 18 19 21 23 24 25 27 28 30 32 32 31 31
19 19 18 18 19 19 18 18 18 18 18 18 18 17 17 17 16 17 16 16 15 15 16 16 16 16 16 18 19 19 20 21 23 25 27 27 28 30 32 33 32 31
Wind_Direction
155 155 153 154 155 156 158 160 163 164 161 157 153 148 144 137 136 142 139 134 135 132 134 146 156 158 151 148 159 164 164 163 165 167 168 169 171 166 167 175 181 185
156 155 153 153 156 157 160 166 172 168 160 155 152 153 150 144 142 145 141 143 146 136 130 140 148 154 153 150 157 159 160 160 156 159 161 159 159 156 154 156 156 156
160 159 159 163 165 165 166 173 177 170 161 157 156 157 155 151 149 147 142 147 148 138 136 140 142 149 152 152 155 154 153 151 147 150 151 146 146 143 140 140 135 127
164 165 165 167 168 170 172 175 172 166 162 159 158 160 160 159 157 152 148 146 138 133 142 146 144 146 147 147 150 149 148 147 147 149 148 143 143 139 135 136 132 121
169 169 169 168 170 173 175 172 166 163 162 162 161 163 166 164 160 157 154 150 139 135 145 151 150 149 150 151 152 152 151 149 151 153 149 144 144 142 140 139 135 124
174 173 172 172 173 173 171 167 164 163 164 163 162 162 161 158 159 160 161 161 153 145 147 153 154 155 156 159 160 159 158 156 155 154 148 143 143 143 144 145 140 127
178 176 175 174 173 170 166 163 163 165 163 161 160 159 158 159 161 164 166 168 163 158 158 158 159 158 157 162 162 159 160 158 154 152 148 145 145 145 147 149 147 137
180 177 177 177 173 169 166 163 164 164 161 161 162 160 162 164 164 165 168 169 164 160 161 162 164 166 164 166 165 162 163 160 155 153 150 150 151 148 145 146 147 144
179 179 180 180 176 171 168 166 165 164 163 163 162 159 160 161 158 158 162 168 168 163 162 165 169 171 171 173 173 172 172 168 163 159 154 154 155 151 148 149 147 144
179 182 184 184 180 175 173 171 169 169 167 166 162 160 163 164 161 160 159 163 169 170 170 172 172 171 173 175 176 175 174 172 168 164 160 159 159 157 157 157 156 151
180 184 186 185 183 179 179 179 177 174 171 169 166 164 168 171 170 168 167 169 173 175 177 177 175 176 179 180 180 177 174 173 173 172 171 170 169 170 169 167 166 165
180 182 185 185 183 179 181 184 182 178 174 172 172 169 168 175 180 179 178 179 176 171 175 178 177 182 185 183 187 189 184 181 181 179 177 176 177 180 180 179 180 179
172 177 185 182 179 175 173 180 183 183 179 175 175 174 170 176 185 187 187 189 182 172 175 180 179 187 193 187 185 190 189 186 184 181 182 184 188 190 190 193 195 194
163 177 192 185 180 175 166 166 176 181 181 176 173 175 178 182 184 186 187 190 188 182 182 184 182 187 195 192 187 187 188 189 188 187 190 195 199 201 201 203 205 204
164 176 187 184 186 187 180 175 173 174 180 180 179 186 201 193 186 185 184 188 191 190 189 191 192 192 195 195 195 193 194 197 197 196 199 203 205 207 206 208 210 208
160 167 170 167 174 183 186 188 184 182 188 190 194 212 242 220 199 193 191 193 196 198 197 200 204 205 204 203 205 206 205 205 204 204 208 208 206 206 206 208 212 212
151 163 168 164 165 163 166 175 179 184 191 187 181 190 210 213 203 200 202 204 207 210 210 211 215 218 218 214 214 217 216 213 212 212 214 215 211 211 211 211 212 214
116 124 144 160 174 165 145 149 164 174 180 174 166 167 156 159 184 195 202 206 211 217 220 222 225 227 226 224 224 225 224 223 221 219 220 223 223 223 223 221 218 217
82 86 90 96 111 121 105 96 108 129 155 157 142 146 156 161 199 214 220 217 216 220 224 230 235 235 233 232 230 229 229 229 227 225 224 225 227 229 231 229 225 222
69 72 72 71 73 77 76 72 66 58 53 51 38 353 333 330 321 299 283 271 263 255 246 242 243 244 244 241 238 236 234 232 231 229 227 226 227 229 230 231 230 228
58 61 62 62 63 65 66 64 59 56 54 49 43 29 3 348 342 328 306 289 279 274 268 261 255 252 252 251 246 242 239 237 236 234 231 229 228 229 231 232 232 232
46 46 46 45 46 48 49 46 43 41 38 34 35 39 35 23 9 349 329 312 293 280 273 268 265 263 261 259 256 251 246 242 240 238 236 234 231 230 233 234 235 237
33 33 32 31 32 32 30 28 26 25 22 16 11 11 11 8 -0 348 339 332 319 305 293 282 276 272 270 268 266 263 258 251 245 241 238 238 237 235 236 238 240 240
26 24 21 19 21 22 19 15 13 11 9 6 2 357 354 353 348 339 332 330 327 322 315 303 291 283 278 274 271 270 267 262 257 251 244 243 244 244 243 243 242 241
27 23 17 14 14 14 13 10 7 2 358 355 353 350 347 344 342 336 328 325 324 323 320 315 305 294 284 277 271 269 268 266 264 259 252 248 248 248 247 246 245 245
28 24 20 17 14 10 8 6 1 356 351 348 346 345 342 339 338 337 331 325 323 322 321 320 315 305 293 282 274 269 266 265 264 260 257 256 254 251 249 247 246 245